STARLINK-3307 (50164 NORAD) Tracking and Keplerian Element Data

This shows tracking and keplerian element data for the satellite.

Feedback or suggestion? Click here.




ElementValue
Catalog50164
NameSTARLINK-3307
Epoch Orbit130
Epoch Day140.58334491
Epoch Year2022
RAAN325.8183
Inclination53.2084
Eccentricity0.0010645
Argument of Perigee333.2321
Mean Anonmoly4.4932
Mean Motion15.8381904
Decay Rate0.0012363
L11 50164U 21125J 22140.58334491 .00123630 00000+0 53920-3 0 9999
L22 50164 53.2084 325.8183 0010645 333.2321 4.4932 15.83819040 1308

Live tracking and technical data element details for STARLINK-3307 (NORAD 50164). STARLINK-3307 can be tracked NOW for your location showing map with azimuth and elevation plus other details from your city location.

Track the satellite on the map from your city or location and see movement details for azimuth, elevation, latitude, longitude, range, height, and movement on the map or in text.







IsCatalogInMostPopularTable: catalog: 50164, numindb: 21
Update: records affected: 1



GetName: 50164 STARLINK-3307

Hit Count: updated at: Mon, 23 May 2022 20:05:44 GMT